Hourly Weather Lisburn

Today, 19 September, Saturday

Time Temperature Precipitation Wind Pressure Humidity
00:00 +10°C° 0 mm 4 mps 765 mmHg 87%
01:00 +8°C° 0 mm 4 mps 764 mmHg 89%
02:00 +8°C° 0 mm 4 mps 764 mmHg 91%
03:00 +9°C° 0 mm 3 mps 764 mmHg 92%
04:00 +9°C° 0 mm 3 mps 764 mmHg 93%
05:00 +8°C° 0 mm 3 mps 764 mmHg 93%
06:00 +7°C° 0 mm 4 mps 764 mmHg 94%
07:00 +8°C° 0 mm 4 mps 764 mmHg 90%
08:00 +11°C° 0 mm 4 mps 764 mmHg 86%
09:00 +12°C° 0 mm 5 mps 764 mmHg 82%
10:00 +13°C° 0 mm 5 mps 764 mmHg 80%
11:00 +13°C° 0 mm 5 mps 764 mmHg 77%
12:00 +14°C° 0 mm 5 mps 764 mmHg 74%
13:00 +14°C° 0 mm 5 mps 763 mmHg 72%
14:00 +15°C° 0 mm 4 mps 763 mmHg 71%
15:00 +15°C° 0 mm 4 mps 763 mmHg 69%
16:00 +14°C° 0 mm 3 mps 763 mmHg 74%
17:00 +13°C° 0 mm 3 mps 763 mmHg 78%
18:00 +13°C° 0 mm 2 mps 763 mmHg 83%
19:00 +12°C° 0 mm 2 mps 763 mmHg 85%
20:00 +11°C° 0 mm 3 mps 763 mmHg 87%
21:00 +10°C° 0 mm 3 mps 763 mmHg 89%
22:00 +10°C° 0 mm 3 mps 764 mmHg 90%
23:00 +10°C° 0 mm 3 mps 764 mmHg 91%

Tomorrow, 20 September, Sunday

Time Temperature Precipitation Wind Pressure Humidity
00:00 +9°C° 0 mm 3 mps 764 mmHg 92%
01:00 +9°C° 0 mm 3 mps 763 mmHg 92%
02:00 +9°C° 0 mm 3 mps 763 mmHg 92%
03:00 +8°C° 0 mm 2 mps 763 mmHg 93%
04:00 +8°C° 0 mm 2 mps 763 mmHg 93%
05:00 +8°C° 0 mm 2 mps 763 mmHg 93%
06:00 +8°C° 0 mm 2 mps 763 mmHg 92%
07:00 +9°C° 0 mm 2 mps 763 mmHg 90%
08:00 +11°C° 0 mm 3 mps 763 mmHg 89%
09:00 +12°C° 0 mm 3 mps 763 mmHg 87%
10:00 +13°C° 0 mm 3 mps 763 mmHg 83%
11:00 +14°C° 0 mm 3 mps 763 mmHg 79%
12:00 +16°C° 0 mm 3 mps 762 mmHg 74%
13:00 +16°C° 0 mm 3 mps 762 mmHg 74%
14:00 +17°C° 0 mm 3 mps 762 mmHg 73%
15:00 +17°C° 0 mm 3 mps 761 mmHg 72%
16:00 +16°C° 0 mm 2 mps 761 mmHg 77%
17:00 +14°C° 0 mm 2 mps 761 mmHg 82%
18:00 +13°C° 0 mm 2 mps 761 mmHg 87%
19:00 +12°C° 0 mm 1 mps 761 mmHg 88%
20:00 +12°C° 0 mm 1 mps 761 mmHg 88%
21:00 +11°C° 0 mm 1 mps 761 mmHg 89%
22:00 +11°C° 0 mm 1 mps 760 mmHg 90%
23:00 +11°C° 0 mm 1 mps 760 mmHg 90%

Day after tomorrow, 21 September, Monday

Time Temperature Precipitation Wind Pressure Humidity
00:00 +11°C° 0 mm 1 mps 759 mmHg 90%
01:00 +11°C° 0 mm 1 mps 759 mmHg 91%
02:00 +11°C° 0 mm 1 mps 758 mmHg 91%
03:00 +11°C° 0 mm 1 mps 758 mmHg 92%
04:00 +11°C° 0 mm 1 mps 758 mmHg 93%
05:00 +11°C° 0 mm 1 mps 758 mmHg 94%
06:00 +10°C° 0 mm 2 mps 757 mmHg 95%
07:00 +12°C° 0 mm 2 mps 757 mmHg 93%
08:00 +14°C° 0 mm 2 mps 757 mmHg 92%
09:00 +15°C° 0 mm 2 mps 757 mmHg 90%
10:00 +16°C° 0 mm 2 mps 757 mmHg 88%
11:00 +16°C° 0 mm 2 mps 757 mmHg 85%
12:00 +17°C° 0 mm 2 mps 757 mmHg 83%
13:00 +17°C° 0 mm 2 mps 756 mmHg 82%
14:00 +17°C° 0 mm 2 mps 756 mmHg 80%
15:00 +18°C° 0 mm 2 mps 755 mmHg 78%
16:00 +17°C° 0 mm 2 mps 755 mmHg 82%
17:00 +16°C° 0 mm 2 mps 754 mmHg 86%
18:00 +15°C° 0 mm 2 mps 754 mmHg 90%
19:00 +15°C° 0 mm 2 mps 754 mmHg 91%
20:00 +14°C° 0 mm 2 mps 753 mmHg 91%
21:00 +13°C° 0 mm 3 mps 753 mmHg 92%
22:00 +13°C° 0 mm 3 mps 752 mmHg 91%
23:00 +13°C° 0 mm 3 mps 751 mmHg 89%

22 September, Tuesday

Time Temperature Precipitation Wind Pressure Humidity
00:00 +13°C° 0 mm 4 mps 750 mmHg 88%
01:00 +13°C° 0 mm 4 mps 749 mmHg 87%
02:00 +13°C° 0 mm 5 mps 747 mmHg 87%
03:00 +13°C° 0 mm 5 mps 746 mmHg 86%
04:00 +13°C° 1 mm 6 mps 746 mmHg 89%
05:00 +11°C° 1 mm 6 mps 745 mmHg 92%
06:00 +11°C° 1 mm 6 mps 745 mmHg 95%
07:00 +11°C° 0.5 mm 6 mps 745 mmHg 93%
08:00 +10°C° 0.5 mm 6 mps 745 mmHg 92%
09:00 +10°C° 0.5 mm 6 mps 745 mmHg 90%
10:00 +10°C° 0.1 mm 7 mps 746 mmHg 83%
11:00 +11°C° 0.1 mm 8 mps 746 mmHg 76%
12:00 +11°C° 0.1 mm 8 mps 747 mmHg 68%
13:00 +11°C° 0 mm 8 mps 747 mmHg 67%
14:00 +11°C° 0 mm 8 mps 748 mmHg 65%
15:00 +11°C° 0 mm 7 mps 748 mmHg 63%
16:00 +10°C° 0 mm 6 mps 748 mmHg 67%
17:00 +9°C° 0 mm 5 mps 748 mmHg 71%
18:00 +8°C° 0 mm 4 mps 749 mmHg 76%
19:00 +7°C° 0 mm 4 mps 749 mmHg 78%
20:00 +7°C° 0 mm 4 mps 749 mmHg 80%
21:00 +6°C° 0 mm 4 mps 749 mmHg 82%
22:00 +5°C° 0 mm 4 mps 748 mmHg 84%
23:00 +5°C° 0 mm 4 mps 748 mmHg 86%

23 September, Wednesday

Time Temperature Precipitation Wind Pressure Humidity
00:00 +5°C° 0 mm 4 mps 748 mmHg 88%
01:00 +5°C° 0 mm 4 mps 747 mmHg 86%
02:00 +5°C° 0 mm 4 mps 746 mmHg 83%
03:00 +6°C° 0 mm 4 mps 746 mmHg 81%
04:00 +6°C° 0.1 mm 4 mps 745 mmHg 83%
05:00 +6°C° 0.1 mm 5 mps 744 mmHg 86%
06:00 +6°C° 0.1 mm 5 mps 743 mmHg 89%
07:00 +7°C° 0.1 mm 5 mps 743 mmHg 88%
08:00 +7°C° 0.1 mm 5 mps 742 mmHg 88%
09:00 +8°C° 0.1 mm 6 mps 741 mmHg 87%
10:00 +9°C° 0.1 mm 6 mps 740 mmHg 83%
11:00 +10°C° 0.1 mm 6 mps 739 mmHg 79%
12:00 +11°C° 0.1 mm 7 mps 737 mmHg 76%
13:00 +11°C° 0.3 mm 7 mps 736 mmHg 77%
14:00 +10°C° 0.3 mm 7 mps 735 mmHg 79%
15:00 +10°C° 0.3 mm 6 mps 734 mmHg 81%
16:00 +9°C° 0.3 mm 5 mps 733 mmHg 84%
17:00 +8°C° 0.3 mm 5 mps 732 mmHg 87%
18:00 +7°C° 0.3 mm 4 mps 731 mmHg 90%
19:00 +7°C° 0.2 mm 4 mps 731 mmHg 91%
20:00 +6°C° 0.2 mm 4 mps 731 mmHg 91%
21:00 +6°C° 0.2 mm 5 mps 731 mmHg 92%
22:00 +5°C° 0.3 mm 5 mps 731 mmHg 92%
23:00 +5°C° 0.3 mm 5 mps 731 mmHg 93%

24 September, Thursday

Time Temperature Precipitation Wind Pressure Humidity
00:00 +5°C° 0.3 mm 5 mps 730 mmHg 93%
01:00 +5°C° 0.9 mm 5 mps 730 mmHg 93%
02:00 +5°C° 0.9 mm 4 mps 730 mmHg 93%
03:00 +5°C° 0.9 mm 4 mps 730 mmHg 92%
04:00 +5°C° 0.1 mm 4 mps 730 mmHg 92%
05:00 +3°C° 0.1 mm 5 mps 730 mmHg 92%
06:00 +3°C° 0.1 mm 5 mps 730 mmHg 91%
07:00 +5°C° 0 mm 5 mps 730 mmHg 88%
08:00 +4°C° 0 mm 6 mps 730 mmHg 85%
09:00 +5°C° 0 mm 6 mps 730 mmHg 82%
10:00 +6°C° 0.1 mm 7 mps 730 mmHg 80%
11:00 +6°C° 0.1 mm 7 mps 730 mmHg 78%
12:00 +7°C° 0.1 mm 8 mps 729 mmHg 76%
13:00 +6°C° 0.2 mm 7 mps 730 mmHg 81%
14:00 +7°C° 0.2 mm 6 mps 730 mmHg 86%
15:00 +6°C° 0.2 mm 5 mps 730 mmHg 91%
16:00 +6°C° 0.5 mm 5 mps 731 mmHg 92%
17:00 +7°C° 0.5 mm 5 mps 732 mmHg 93%
18:00 +7°C° 0.5 mm 4 mps 732 mmHg 94%
19:00 +7°C° 0.2 mm 5 mps 733 mmHg 92%
20:00 +7°C° 0.2 mm 6 mps 734 mmHg 90%
21:00 +6°C° 0.2 mm 7 mps 736 mmHg 88%
22:00 +6°C° 0 mm 8 mps 736 mmHg 86%
23:00 +6°C° 0 mm 10 mps 737 mmHg 83%
Show more